Location: Poughquag
(41.6090°N, 73.6820°W)
Time: 00:56:46
(UTC-05:00)

Transit 4A - Visible Passes

Search period start: 29 November 2023 00:00
Search period end: 09 December 2023 00:00
Orbit: 864 x 979 km, 66.8° (Epoch: 28 November)

Date Brightness Start Highest point End Pass type
(mag) Time Alt. Az. Time Alt. Az. Time Alt. Az.
29 Nov 10.3 03:58:44 10° N 04:01:26 13° NNE 04:04:05 10° ENE visible
29 Nov 8.6 05:43:20 10° NNW 05:49:20 52° NE 05:55:07 10° SE visible
30 Nov 10.1 04:07:53 12° N 04:11:04 17° NE 04:14:51 10° ENE visible
30 Nov 8.0 05:52:22 10° NNW 05:58:31 75° ENE 06:04:26 10° SE visible
01 Dec 9.8 04:17:10 15° N 04:20:35 22° NE 04:25:11 10° E visible
01 Dec 7.8 06:01:31 10° NNW 06:07:37 76° WSW 06:13:30 10° SSE visible
02 Dec 9.4 04:26:31 18° N 04:30:01 30° NE 04:35:12 10° ESE visible
02 Dec 8.1 06:10:47 10° NW 06:16:39 51° WSW 06:22:19 10° S visible
03 Dec 10.6 02:52:24 10° NE 02:52:24 10° NE 02:52:29 10° NE visible
03 Dec 8.9 04:35:56 22° N 04:39:22 41° NE 04:44:57 10° ESE visible
03 Dec 8.6 06:20:12 10° NW 06:25:34 34° WSW 06:30:48 10° S visible
04 Dec 10.4 03:01:54 13° NE 03:01:54 13° NE 03:03:54 10° ENE visible
04 Dec 8.3 04:45:26 28° NNW 04:48:37 59° NE 04:54:27 10° SE visible
04 Dec 9.0 06:29:53 10° WNW 06:34:26 23° WSW 06:38:53 10° SSW visible
04 Dec 10.1 19:48:33 10° SSW 19:49:30 15° SSW 19:49:30 15° SSW visible
05 Dec 10.1 03:11:29 18° NE 03:11:29 18° NE 03:14:30 10° E visible
05 Dec 7.8 04:55:02 35° NNW 04:57:47 84° ENE 05:03:41 10° SSE visible
05 Dec 9.7 18:14:08 10° SE 18:15:53 15° SE 18:15:53 15° SE visible
05 Dec 9.9 19:57:38 10° SW 19:59:27 20° SW 19:59:27 20° SW visible
06 Dec 9.8 03:21:08 23° ENE 03:21:08 23° ENE 03:24:44 10° E visible
06 Dec 7.7 05:04:41 40° NW 05:06:51 67° WSW 05:12:40 10° SSE visible
06 Dec 9.1 18:21:56 10° SSE 18:25:48 26° SE 18:25:48 26° SE visible
06 Dec 9.8 20:07:00 10° SW 20:09:22 23° WSW 20:09:22 23° WSW visible
07 Dec 9.5 03:30:53 29° ENE 03:30:53 29° ENE 03:34:40 10° ESE visible
07 Dec 8.1 05:14:26 38° WNW 05:15:50 45° WSW 05:21:23 10° S visible
07 Dec 8.4 18:30:13 10° S 18:35:40 41° ESE 18:35:40 41° ESE visible
07 Dec 9.9 20:16:36 10° WSW 20:19:15 23° WSW 20:19:15 23° WSW visible
08 Dec 9.2 03:40:42 34° E 03:40:42 34° E 03:44:19 10° SE visible
08 Dec 8.6 05:24:15 29° W 05:24:45 30° WSW 05:29:46 10° SSW visible
08 Dec 7.9 18:38:51 10° SSW 18:45:07 60° ESE 18:45:30 59° E visible
08 Dec 10.1 20:26:28 10° WSW 20:29:03 21° W 20:29:03 21° W visible
